TimeEDT,TemperatureF,Dew PointF,Humidity,Sea Level PressureIn,VisibilityMPH,Wind Direction,Wind SpeedMPH,Gust SpeedMPH,PrecipitationIn,Events,Conditions,WindDirDegrees,DateUTC
12:54 AM,73.0,69.1,87,30.17,10.0,South,6.9,-,N/A,,Clear,190,2013-09-10 04:54:00
1:54 AM,73.0,68.0,84,30.17,10.0,South,8.1,-,N/A,,Clear,190,2013-09-10 05:54:00
2:54 AM,73.0,68.0,84,30.17,10.0,South,6.9,-,N/A,,Clear,190,2013-09-10 06:54:00
3:54 AM,73.9,69.1,85,30.17,10.0,South,6.9,-,N/A,,Mostly Cloudy,190,2013-09-10 07:54:00
4:54 AM,73.9,69.1,85,30.17,10.0,SSW,8.1,-,N/A,,Overcast,200,2013-09-10 08:54:00
5:54 AM,73.9,69.1,85,30.18,10.0,SSW,6.9,-,N/A,,Partly Cloudy,210,2013-09-10 09:54:00
6:54 AM,72.0,68.0,87,30.19,9.0,SW,4.6,-,N/A,,Partly Cloudy,230,2013-09-10 10:54:00
7:54 AM,75.0,70.0,84,30.20,10.0,SW,8.1,-,N/A,,Scattered Clouds,220,2013-09-10 11:54:00
8:54 AM,79.0,69.1,72,30.21,10.0,SW,9.2,-,N/A,,Clear,230,2013-09-10 12:54:00
9:54 AM,82.0,68.0,62,30.22,10.0,SSW,13.8,-,N/A,,Scattered Clouds,210,2013-09-10 13:54:00
10:54 AM,84.9,69.1,59,30.22,10.0,SSW,12.7,-,N/A,,Scattered Clouds,210,2013-09-10 14:54:00
11:54 AM,84.0,70.0,63,30.21,10.0,SSW,13.8,-,N/A,,Scattered Clouds,210,2013-09-10 15:54:00
12:54 PM,86.0,71.1,61,30.19,10.0,South,15.0,-,N/A,,Scattered Clouds,190,2013-09-10 16:54:00
1:54 PM,84.9,72.0,65,30.18,10.0,SSW,16.1,-,N/A,,Partly Cloudy,210,2013-09-10 17:54:00
2:54 PM,84.9,72.0,65,30.16,10.0,SSW,12.7,-,N/A,,Partly Cloudy,210,2013-09-10 18:54:00
3:54 PM,84.9,71.1,63,30.14,10.0,SSW,17.3,24.2,N/A,,Clear,200,2013-09-10 19:54:00
4:54 PM,84.0,70.0,63,30.13,10.0,SSW,13.8,-,N/A,,Clear,210,2013-09-10 20:54:00
5:54 PM,81.0,70.0,69,30.14,10.0,SSW,15.0,-,N/A,,Clear,210,2013-09-10 21:54:00
6:54 PM,79.0,69.1,72,30.15,10.0,SW,11.5,-,N/A,,Clear,220,2013-09-10 22:54:00
7:54 PM,78.1,70.0,76,30.15,10.0,SSW,13.8,-,N/A,,Clear,210,2013-09-10 23:54:00
8:54 PM,78.1,70.0,76,30.16,10.0,SSW,11.5,-,N/A,,Clear,210,2013-09-11 00:54:00
9:54 PM,77.0,70.0,79,30.18,10.0,SSW,11.5,-,N/A,,Clear,210,2013-09-11 01:54:00
10:54 PM,77.0,69.1,76,30.18,10.0,SW,10.4,-,N/A,,Clear,220,2013-09-11 02:54:00
11:54 PM,77.0,69.1,76,30.18,10.0,SW,9.2,-,N/A,,Clear,230,2013-09-11 03:54:00